COSMOS 2251 DEB, 36437

Orbit data source: Space-Track

COSMOS 2251 DEB, 36437 is space debris in LEO originally from a launch on Wed, 16 Jun 1993 UTC launched from the Plesetsk Missile And Space Complex (PKMTR). The debris from Iridium 33, an American commercial communications satellite, has been tracked extensively since its accidental collision with the defunct Russian satellite Cosmos 2251 in 2009. This event, occurring at high speed in low Earth orbit (LEO), generated thousands of pieces of space debris, significantly increasing the risk of further collisions. The Iridium 33 debris cloud has impacted space traffic management and orbital debris mitigation strategies, making it a subject of ongoing study in space situational awareness.

Loading next visibility...
Identifier
36437, 1993-036BAL
Orbit
LEO
Country
Flag of CISCIS
Related business
Manufacturer
Unknown
Mission
Spacecraft
Bus & Motor
Unknown
Mass
Unknown
Launch date (UTC)
1993-06-16 (33 years ago)
Launch vehicle
Unknown
Launch site
Plesetsk Missile And Space Complex (PKMTR)
Object type
Payload
Rocket body
Debris
Shape & HBR
Unknown shape, 0.1 m
Radar Cross Section
Small (<0.1 m²)

Expand to show TLE details & history
Last TLE update: 3 days ago

TLE from 3 days ago
0 COSMOS 2251 DEB
1 36437U 93036BAL 26160.42480523  .00005598  00000-0  85180-3 0  9999
2 36437  73.9417  44.1325 0021060 221.3245 138.6335 14.74067384686815
Epoch: 2026-06-09T10:11Z
TLE epoch observation values (Epoch: 2026-06-09T10:11:43.171Z)
Latitude
-0.00006°
Longitude
-6.59489°
Altitude
661.886 km
Speed
7.521 km/s
True Right ascension
02h 56m 31s
True Declination
0° 00' 00"
Sunlit
Object was in daylight at epoch
Visualization orbit readout
Latitude
Unknown
Longitude
Unknown
Altitude
Unknown
Speed
Unknown
Apparent Right ascension
Unknown
Apparent Declination
Unknown
Sunlit
N/A
Visualization observer readout
Local Sidereal Time
20:52:44
Azimuth
Unknown
Elevation
Unknown
Doppler factor
Unknown
Orbital elements
Apogee altitude
660.496 km
Perigee altitude
630.911 km
Semi-major axis
7,023.841 km
Eccentricity
0.00211
Inclination
73.9417°
RAAN
44.1325°
Arg. of periapsis
221.3245°
True anomaly
138.79267°
Mean anomaly
138.6335°
Eccentric anomaly
138.71312°
Mean motion
3.68707 °/min
Orbital period
97.64 mins
BSTAR
0.0008518

Documentation

Showing up to 5 results
|